When you browse on this site, cookies collect data to enhance your experience and personalize the content and advertising you see.
Visit our Privacy Policy to learn more. By continuing to use the site, you agree to this use of cookies and data.
  • In United Kingdom
  • List of Countries
  • For 7 days
  • Water Temperature
  • Weather Map
  • Weather Widgets
  • user-avatar
    Login

    Hourly Weather Zachereve

    Today, 22 February, Saturday

    Time Temperature Precipitation Wind Pressure Humidity
    00:00 -1°C° 0 mm 4 mps 749 mmHg 91%
    01:00 -1°C° 0 mm 4 mps 749 mmHg 91%
    02:00 -1°C° 0 mm 4 mps 750 mmHg 91%
    03:00 -1°C° 0 mm 4 mps 750 mmHg 91%
    04:00 -1°C° 0 mm 4 mps 750 mmHg 91%
    05:00 -1°C° 0 mm 5 mps 750 mmHg 90%
    06:00 -1°C° 0 mm 5 mps 750 mmHg 89%
    07:00 0°C° 0 mm 5 mps 750 mmHg 88%
    08:00 0°C° 0 mm 5 mps 750 mmHg 86%
    09:00 0°C° 0 mm 5 mps 749 mmHg 83%
    10:00 +1°C° 0 mm 6 mps 749 mmHg 79%
    11:00 +2°C° 0 mm 7 mps 748 mmHg 75%
    12:00 +2°C° 0 mm 7 mps 747 mmHg 71%
    13:00 +2°C° 0 mm 8 mps 746 mmHg 67%
    14:00 +2°C° 0 mm 9 mps 745 mmHg 63%
    15:00 +2°C° 0.1 mm 9 mps 744 mmHg 66%
    16:00 +2°C° 0.1 mm 9 mps 743 mmHg 70%
    17:00 +1°C° 0.1 mm 9 mps 741 mmHg 73%
    18:00 +1°C° 0.5 mm 9 mps 740 mmHg 77%
    19:00 +1°C° 0.5 mm 10 mps 739 mmHg 81%
    20:00 -1°C° 0.5 mm 11 mps 738 mmHg 84%
    21:00 +1°C° 0.3 mm 10 mps 737 mmHg 84%
    22:00 +1°C° 0.3 mm 10 mps 736 mmHg 85%
    23:00 +2°C° 0.3 mm 9 mps 735 mmHg 85%

    Tomorrow, 23 February, Sunday

    Time Temperature Precipitation Wind Pressure Humidity
    00:00 +2°C° 0.4 mm 9 mps 734 mmHg 83%
    01:00 +1°C° 0.4 mm 9 mps 734 mmHg 82%
    02:00 +1°C° 0.4 mm 8 mps 734 mmHg 81%
    03:00 +1°C° 0.1 mm 8 mps 734 mmHg 78%
    04:00 0°C° 0.1 mm 7 mps 733 mmHg 76%
    05:00 0°C° 0.1 mm 7 mps 733 mmHg 74%
    06:00 -1°C° 0 mm 6 mps 734 mmHg 75%
    07:00 -1°C° 0 mm 6 mps 734 mmHg 75%
    08:00 -1°C° 0 mm 6 mps 735 mmHg 76%
    09:00 -1°C° 0 mm 7 mps 734 mmHg 75%
    10:00 0°C° 0 mm 7 mps 734 mmHg 73%
    11:00 0°C° 0 mm 8 mps 734 mmHg 72%
    12:00 0°C° 0.1 mm 8 mps 734 mmHg 74%
    13:00 0°C° 0.1 mm 9 mps 734 mmHg 76%
    14:00 0°C° 0.1 mm 9 mps 734 mmHg 78%
    15:00 0°C° 0.1 mm 9 mps 733 mmHg 82%
    16:00 -1°C° 0.1 mm 9 mps 733 mmHg 87%
    17:00 -1°C° 0.1 mm 9 mps 732 mmHg 92%
    18:00 -1°C° 0.1 mm 8 mps 732 mmHg 91%
    19:00 -1°C° 0.1 mm 8 mps 732 mmHg 91%
    20:00 -1°C° 0.1 mm 8 mps 732 mmHg 90%
    21:00 -1°C° 0 mm 7 mps 732 mmHg 89%
    22:00 -1°C° 0 mm 6 mps 732 mmHg 88%
    23:00 -1°C° 0 mm 6 mps 731 mmHg 87%

    Day after tomorrow, 24 February, Monday

    Time Temperature Precipitation Wind Pressure Humidity
    00:00 0°C° 0 mm 5 mps 731 mmHg 89%
    01:00 -1°C° 0 mm 5 mps 732 mmHg 90%
    02:00 -1°C° 0 mm 4 mps 732 mmHg 92%
    03:00 -1°C° 0 mm 4 mps 732 mmHg 90%
    04:00 -1°C° 0 mm 5 mps 732 mmHg 88%
    05:00 -1°C° 0 mm 5 mps 732 mmHg 86%
    06:00 -1°C° 0 mm 5 mps 733 mmHg 84%
    07:00 -1°C° 0 mm 5 mps 734 mmHg 82%
    08:00 -1°C° 0 mm 5 mps 735 mmHg 81%
    09:00 -1°C° 0 mm 6 mps 736 mmHg 73%
    10:00 -1°C° 0 mm 7 mps 737 mmHg 65%
    11:00 0°C° 0 mm 7 mps 738 mmHg 57%
    12:00 0°C° 0 mm 7 mps 739 mmHg 56%
    13:00 0°C° 0 mm 7 mps 739 mmHg 54%
    14:00 0°C° 0 mm 7 mps 740 mmHg 53%
    15:00 0°C° 0 mm 7 mps 740 mmHg 55%
    16:00 -1°C° 0 mm 6 mps 741 mmHg 58%
    17:00 -1°C° 0 mm 6 mps 741 mmHg 60%
    18:00 -1°C° 0 mm 5 mps 742 mmHg 64%
    19:00 -1°C° 0 mm 4 mps 742 mmHg 67%
    20:00 -1°C° 0 mm 3 mps 743 mmHg 70%
    21:00 -1°C° 0 mm 3 mps 743 mmHg 72%
    22:00 -1°C° 0 mm 3 mps 742 mmHg 73%
    23:00 -1°C° 0 mm 3 mps 742 mmHg 74%

    25 February, Tuesday

    Time Temperature Precipitation Wind Pressure Humidity
    00:00 -1°C° 0 mm 2 mps 742 mmHg 75%
    01:00 -2°C° 0 mm 2 mps 742 mmHg 75%
    02:00 -2°C° 0 mm 2 mps 742 mmHg 76%
    03:00 -2°C° 0 mm 2 mps 741 mmHg 78%
    04:00 -2°C° 0 mm 2 mps 740 mmHg 81%
    05:00 -2°C° 0 mm 2 mps 740 mmHg 83%
    06:00 -1°C° 0.2 mm 3 mps 739 mmHg 86%
    07:00 -1°C° 0.2 mm 3 mps 739 mmHg 89%
    08:00 -1°C° 0.2 mm 3 mps 738 mmHg 91%
    09:00 -2°C° 0.1 mm 4 mps 737 mmHg 92%
    10:00 -1°C° 0.1 mm 4 mps 736 mmHg 93%
    11:00 -1°C° 0.1 mm 5 mps 736 mmHg 95%
    12:00 -1°C° 0.4 mm 5 mps 735 mmHg 95%
    13:00 -2°C° 0.4 mm 6 mps 734 mmHg 95%
    14:00 -2°C° 0.4 mm 6 mps 733 mmHg 95%
    15:00 0°C° 0.2 mm 5 mps 733 mmHg 94%
    16:00 +1°C° 0.2 mm 5 mps 732 mmHg 92%
    17:00 +1°C° 0.2 mm 4 mps 732 mmHg 91%
    18:00 +1°C° 0 mm 4 mps 731 mmHg 91%
    19:00 0°C° 0 mm 4 mps 731 mmHg 92%
    20:00 +1°C° 0 mm 3 mps 731 mmHg 92%
    21:00 +1°C° 0 mm 3 mps 731 mmHg 93%
    22:00 0°C° 0 mm 3 mps 731 mmHg 94%
    23:00 0°C° 0 mm 3 mps 731 mmHg 94%

    26 February, Wednesday

    Time Temperature Precipitation Wind Pressure Humidity
    00:00 0°C° 0 mm 3 mps 730 mmHg 95%
    01:00 0°C° 0 mm 3 mps 730 mmHg 96%
    02:00 0°C° 0 mm 3 mps 730 mmHg 97%
    03:00 -1°C° 0.1 mm 4 mps 729 mmHg 94%
    04:00 -1°C° 0.1 mm 4 mps 729 mmHg 91%
    05:00 -1°C° 0.1 mm 5 mps 729 mmHg 88%
    06:00 -1°C° 0 mm 5 mps 729 mmHg 85%
    07:00 -1°C° 0 mm 5 mps 729 mmHg 83%
    08:00 0°C° 0 mm 5 mps 729 mmHg 80%
    09:00 -1°C° 0 mm 6 mps 729 mmHg 79%
    10:00 -1°C° 0 mm 6 mps 730 mmHg 77%
    11:00 -1°C° 0 mm 6 mps 730 mmHg 76%
    12:00 -1°C° 0 mm 6 mps 730 mmHg 75%
    13:00 +1°C° 0 mm 6 mps 730 mmHg 73%
    14:00 +1°C° 0 mm 6 mps 731 mmHg 72%
    15:00 +1°C° 0 mm 5 mps 731 mmHg 72%
    16:00 +1°C° 0 mm 4 mps 731 mmHg 72%
    17:00 0°C° 0 mm 4 mps 732 mmHg 72%
    18:00 +1°C° 0 mm 3 mps 732 mmHg 75%
    19:00 0°C° 0 mm 3 mps 732 mmHg 78%
    20:00 -1°C° 0 mm 2 mps 732 mmHg 80%
    21:00 -1°C° 0 mm 2 mps 732 mmHg 82%
    22:00 -1°C° 0 mm 2 mps 732 mmHg 84%
    23:00 -1°C° 0 mm 2 mps 732 mmHg 86%

    27 February, Thursday

    Time Temperature Precipitation Wind Pressure Humidity
    00:00 -1°C° 0 mm 2 mps 732 mmHg 89%
    01:00 -1°C° 0 mm 2 mps 732 mmHg 91%
    02:00 -1°C° 0 mm 2 mps 731 mmHg 93%
    03:00 -1°C° 0.1 mm 2 mps 731 mmHg 93%
    04:00 -1°C° 0.1 mm 2 mps 731 mmHg 94%
    05:00 -1°C° 0.1 mm 3 mps 731 mmHg 94%
    06:00 0°C° 0.8 mm 3 mps 731 mmHg 94%
    07:00 0°C° 0.8 mm 3 mps 731 mmHg 95%
    08:00 0°C° 0.8 mm 3 mps 731 mmHg 95%
    09:00 0°C° 0 mm 3 mps 731 mmHg 91%
    10:00 +1°C° 0 mm 3 mps 731 mmHg 87%
    11:00 0°C° 0 mm 4 mps 731 mmHg 83%
    12:00 0°C° 0.2 mm 4 mps 731 mmHg 86%
    13:00 0°C° 0.2 mm 4 mps 731 mmHg 89%
    14:00 -1°C° 0.2 mm 4 mps 731 mmHg 92%
    15:00 -1°C° 0.1 mm 5 mps 732 mmHg 89%
    16:00 -1°C° 0.1 mm 5 mps 733 mmHg 87%
    17:00 -1°C° 0.1 mm 5 mps 733 mmHg 84%
    18:00 -2°C° 0 mm 5 mps 734 mmHg 86%
    19:00 -4°C° 0 mm 5 mps 735 mmHg 87%
    20:00 -5°C° 0 mm 5 mps 736 mmHg 88%
    21:00 -5°C° 0 mm 5 mps 737 mmHg 85%
    22:00 -6°C° 0 mm 5 mps 738 mmHg 83%
    23:00 -7°C° 0 mm 5 mps 738 mmHg 80%
    Show more